Date String (YYYY-MM-DD hh:mm:ss) UTC,Instrument flags,Ambient pressure (hPa),Sample flow (lpm),Bypass flow (lpm),Sample temperature (°C),Ambient temperature (°C),ASC tube jacket temperature (°C),LED temperature (°C),Box temperature (°C),Sample RH (%),Span deviation,Mass concentration (μg/m³),Mass concentration (μg/m³),Mass concentration (μg/m³)
DateTimeUTC,F1_M11,P_M11,Q1_M11,Q2_M11,T1_M11,T2_M11,T3_M11,T4_M11,T5_M11,U1_M11,ZSPAN_M11,X2_M11,X0_M11,X1_M11
2022-06-02 18:00:00,,0827.8,5.01,0.00,28.8,28.0,00.0,37.6,30.7,24.5,-002.6,0008.73,0012.35,0008.38
2022-06-02 18:01:00,,0827.8,5.00,0.00,28.8,28.0,00.0,37.6,30.7,24.1,-002.5,0008.69,0011.79,0008.34
2022-06-02 18:02:00,,0827.8,5.00,0.00,28.8,28.0,00.0,37.6,30.7,23.5,-002.3,0008.65,0011.78,0008.29
2022-06-02 18:03:00,,0827.7,4.99,0.00,28.8,28.0,00.0,37.6,30.7,23.7,-002.3,0008.67,0011.88,0008.26
2022-06-02 18:04:00,,0827.7,5.00,0.00,28.8,28.0,00.0,37.6,30.8,23.5,-002.4,0008.76,0012.00,0008.33
2022-06-02 18:05:00,,0827.7,5.00,0.00,28.8,28.0,00.0,37.7,30.7,23.4,-002.2,0008.81,0012.11,0008.38
2022-06-02 18:06:00,,0827.7,5.00,0.00,28.8,28.0,00.0,37.7,30.8,23.7,-002.1,0008.86,0011.88,0008.41
2022-06-02 18:07:00,,0827.7,5.01,0.00,28.9,28.0,00.0,37.7,30.8,25.0,-001.9,0008.86,0011.55,0008.40
2022-06-02 18:08:00,,0827.7,4.99,0.00,28.9,28.1,00.0,37.7,30.8,24.5,-001.7,0008.78,0011.51,0008.33
2022-06-02 18:09:00,,0827.7,5.00,0.00,28.9,28.1,00.0,37.7,30.8,24.1,-001.6,0008.74,0011.46,0008.30
2022-06-02 18:10:00,,0827.7,5.00,0.00,28.9,28.1,00.0,37.7,30.8,23.7,-001.5,0008.70,0011.44,0008.25
2022-06-02 18:11:00,,0827.7,5.01,0.00,28.9,28.1,00.0,37.7,30.9,24.0,-001.4,0008.62,0011.33,0008.19
2022-06-02 18:12:00,,0827.7,5.00,0.00,28.9,28.1,00.0,37.7,30.9,23.9,-001.3,0008.58,0011.27,0008.15
2022-06-02 18:13:00,,0827.7,5.00,0.00,28.9,28.1,00.0,37.8,30.9,24.6,-001.6,0008.55,0011.32,0008.12
2022-06-02 18:14:00,,0827.7,5.00,0.00,29.0,28.2,00.0,37.8,30.9,23.6,-001.5,0008.52,0011.23,0008.13
2022-06-02 18:15:00,,0827.7,4.99,0.00,29.0,28.2,00.0,37.8,30.9,23.6,-001.3,0008.44,0011.79,0008.07
2022-06-02 18:16:00,,0827.7,5.01,0.00,29.0,28.2,00.0,37.8,30.9,23.1,-001.2,0008.39,0011.81,0008.04
2022-06-02 18:17:00,,0827.7,5.01,0.00,29.0,28.2,00.0,37.8,30.9,23.4,-001.3,0008.37,0011.78,0008.02
2022-06-02 18:18:00,,0827.7,5.00,0.00,29.0,28.2,00.0,37.8,31.0,23.4,-001.4,0008.39,0011.83,0008.03
2022-06-02 18:19:00,,0827.7,5.00,0.00,29.0,28.3,00.0,37.8,31.0,23.8,-001.5,0008.42,0011.85,0008.05
2022-06-02 18:20:00,,0827.6,5.00,0.00,29.1,28.3,00.0,37.9,31.0,24.1,-001.8,0008.37,0011.77,0008.01
2022-06-02 18:21:00,,0827.6,4.99,0.00,29.1,28.3,00.0,37.9,31.0,23.7,-002.0,0008.30,0011.67,0007.93
2022-06-02 18:22:00,,0827.6,5.00,0.00,29.1,28.3,00.0,37.9,31.0,24.8,-002.4,0008.24,0011.69,0007.86
2022-06-02 18:23:00,,0827.7,4.99,0.00,29.1,28.3,00.0,37.9,31.0,24.6,-002.7,0008.20,0011.67,0007.81
2022-06-02 18:24:00,,0827.6,5.00,0.00,29.1,28.3,00.0,37.9,31.1,23.4,-002.8,0008.18,0011.60,0007.79
2022-06-02 18:25:00,,0827.6,5.00,0.00,29.1,28.4,00.0,37.9,31.1,23.4,-002.9,0008.18,0011.61,0007.76
2022-06-02 18:26:00,,0827.7,5.01,0.00,29.1,28.4,00.0,37.9,31.1,23.1,-002.9,0008.21,0011.05,0007.76
2022-06-02 18:27:00,,0827.7,5.01,0.00,29.2,28.4,00.0,38.0,31.1,23.4,-002.6,0008.17,0010.86,0007.72
2022-06-02 18:28:00,,0827.7,5.00,0.00,29.2,28.4,00.0,38.0,31.1,23.3,-002.2,0008.09,0010.78,0007.66
2022-06-02 18:29:00,,0827.6,4.99,0.00,29.2,28.4,00.0,38.0,31.1,22.5,-002.0,0008.04,0011.03,0007.63
2022-06-02 18:30:00,,0827.6,5.00,0.00,29.2,28.4,00.0,38.0,31.1,22.6,-001.6,0008.00,0010.98,0007.60
2022-06-02 18:31:00,,0827.6,5.01,0.00,29.2,28.4,00.0,38.0,31.1,23.4,-001.6,0008.00,0011.06,0007.59
2022-06-02 18:32:00,,0827.6,5.00,0.00,29.2,28.4,00.0,38.0,31.1,24.0,-001.1,0008.01,0011.11,0007.60
2022-06-02 18:33:00,,0827.6,5.01,0.00,29.2,28.4,00.0,38.0,31.1,24.6,-000.5,0008.03,0011.12,0007.61
2022-06-02 18:34:00,,0827.6,5.00,0.00,29.2,28.4,00.0,38.1,31.1,23.8,-000.6,0008.08,0011.19,0007.66
2022-06-02 18:35:00,,0827.5,5.00,0.00,29.3,28.5,00.0,38.1,31.2,24.3,-000.8,0008.11,0011.28,0007.69
2022-06-02 18:36:00,,0827.5,4.98,0.00,29.3,28.5,00.0,38.1,31.2,24.6,-001.2,0008.13,0011.38,0007.73
2022-06-02 18:37:00,,0827.5,5.00,0.00,29.3,28.5,00.0,38.1,31.2,24.4,-001.1,0008.15,0011.39,0007.77
2022-06-02 18:38:00,,0827.5,5.00,0.00,29.3,28.5,00.0,38.1,31.2,23.6,-001.3,0008.28,0011.51,0007.91
2022-06-02 18:39:00,,0827.5,5.00,0.00,29.3,28.5,00.0,38.1,31.2,23.8,-001.1,0008.44,0011.72,0008.06
2022-06-02 18:40:00,,0827.5,4.99,0.00,29.3,28.6,00.0,38.1,31.3,23.9,-001.5,0008.55,0012.75,0008.16
2022-06-02 18:41:00,,0827.5,5.00,0.00,29.4,28.6,00.0,38.2,31.3,23.6,-001.5,0008.69,0013.15,0008.28
2022-06-02 18:42:00,,0827.5,5.01,0.00,29.4,28.6,00.0,38.2,31.3,23.3,-001.3,0008.84,0013.55,0008.43
2022-06-02 18:43:00,,0827.5,5.00,0.00,29.4,28.6,00.0,38.2,31.3,22.7,-001.4,0009.01,0013.68,0008.62
2022-06-02 18:44:00,,0827.5,5.00,0.00,29.4,28.6,00.0,38.2,31.3,22.7,-001.5,0009.18,0013.92,0008.81
2022-06-02 18:45:00,,0827.4,4.99,0.00,29.4,28.6,00.0,38.2,31.3,23.4,-001.1,0009.27,0014.32,0008.91
2022-06-02 18:46:00,,0827.4,5.00,0.00,29.4,28.7,00.0,38.2,31.3,23.3,-000.8,0009.32,0014.79,0008.99
2022-06-02 18:47:00,,0827.4,5.00,0.00,29.5,28.7,00.0,38.2,31.4,22.9,-000.3,0009.38,0015.25,0009.04
2022-06-02 18:48:00,,0827.4,5.00,0.00,29.5,28.7,00.0,38.3,31.4,23.3,-000.2,0009.41,0015.50,0009.07
2022-06-02 18:49:00,,0827.3,5.00,0.00,29.5,28.7,00.0,38.3,31.4,22.8,-000.2,0009.37,0015.48,0009.02
2022-06-02 18:50:00,,0827.4,5.01,0.00,29.5,28.7,00.0,38.3,31.4,23.4,-000.4,0009.36,0015.53,0008.98
2022-06-02 18:51:00,,0827.4,5.01,0.00,29.5,28.7,00.0,38.3,31.4,23.0,-000.6,0009.50,0014.96,0009.09
2022-06-02 18:52:00,,0827.4,5.00,0.00,29.5,28.7,00.0,38.3,31.4,23.0,-000.8,0009.59,0014.50,0009.19
2022-06-02 18:53:00,,0827.4,4.99,0.00,29.5,28.8,00.0,38.3,31.4,23.3,-000.8,0009.60,0014.30,0009.23
2022-06-02 18:54:00,,0827.4,5.01,0.00,29.5,28.7,00.0,38.4,31.4,22.7,-000.9,0009.61,0014.17,0009.23
2022-06-02 18:55:00,,0827.4,5.00,0.00,29.5,28.7,00.0,38.4,31.4,23.0,-000.9,0009.57,0014.04,0009.19
2022-06-02 18:56:00,,0827.4,5.01,0.00,29.6,28.7,00.0,38.4,31.4,22.9,-000.8,0009.53,0013.88,0009.14
2022-06-02 18:57:00,,0827.4,5.00,0.00,29.6,28.7,00.0,38.4,31.4,22.1,-001.1,0009.50,0013.23,0009.08
2022-06-02 18:58:00,,0827.4,5.00,0.00,29.6,28.8,00.0,38.4,31.5,22.0,-001.2,0009.49,0013.12,0009.06
2022-06-02 18:59:00,,0827.4,5.00,0.00,29.6,28.8,00.0,38.4,31.5,21.8,-001.3,0009.48,0012.77,0009.05
